[[{"header":{"parameterUnit":"m.s-1","parameterCategory":1,"la1":30.2991,"la2":30.254,"lo1":-89.0895,"lo2":-89.0444,"dy":0.0017,"dx":0.0017,"nx":28,"ny":28,"refTime":"2024-12-10T09:00:00:Z","depth":0,"parameterNumber":2,"parameterNumberName":"U-component_of_WINDS"},"data":[0,0,0,0,0,0,0,0,0,0,0,0,0,0,0,0,0,0,0,0,0,0,0,0,0,0,0,0,0,0,0,0,0,0,0,0,0,0,0,0,0,0,0,0,0,0,0,0,0,0,0,0,0,0,0,0,0,0,1.5084,1.5081,0,1.485,1.4847,1.4845,1.4686,1.4685,1.4684,1.4683,1.444,1.4435,1.443,0,0,0,0,0,0,0,0,0,0,0,0,0,1.5393,1.5388,1.5084,1.5081,1.5078,1.4851,1.4847,1.4844,1.4686,1.4685,1.4683,1.4682,1.4442,1.4436,1.4429,0,0,0,0,0,0,0,0,0,0,0,0,0,1.5219,1.5387,1.5084,1.4972,1.4959,1.4851,1.4847,1.4843,1.4686,1.4685,1.4683,1.4681,1.4444,1.4436,1.4428,1.4413,0,0,1.4404,1.44,0,0,0,0,0,0,0,0,1.5229,1.5208,1.4991,1.4979,1.4965,1.4795,1.4867,1.4699,1.4687,1.479,1.4683,1.4681,1.456,1.4542,1.4502,1.4401,1.4391,1.4403,1.4398,1.4395,1.4392,0,0,0,0,0,0,0,1.5241,1.5217,1.4991,1.4988,1.4972,1.4933,1.4906,1.4835,1.4687,1.4781,1.4769,1.4743,1.4552,1.451,1.4495,1.4387,1.4403,1.4396,1.4391,1.4388,1.4268,1.4269,0,0,0,0,0,0,1.5271,1.5228,1.4999,1.4984,1.5096,1.4929,1.4899,1.4852,1.4687,1.4661,1.4745,1.4737,1.4525,1.4505,1.4486,1.446,1.4395,1.4387,1.4382,1.4266,1.4268,1.427,0,0,0,0,0,0,1.5279,1.5252,1.5008,1.5103,1.5069,1.4925,1.4873,1.4848,1.4805,1.4661,1.4633,1.4729,1.4522,1.4497,1.4433,1.445,1.4383,1.4376,1.4264,1.4267,1.4269,1.4407,0,0,0,0,0,0,1.5288,1.5256,1.5248,1.5104,1.5064,1.496,1.4874,1.4845,1.4792,1.4779,1.4638,1.4613,1.4519,1.4446,1.4426,1.4437,1.437,1.4262,1.4265,1.4268,1.4401,1.4414,1.4426,0,0,0,0,0,1.53,1.5295,1.5249,1.5222,1.5052,1.4961,1.4938,1.4831,1.4794,1.4786,1.4694,1.4618,1.4451,1.4441,1.4416,1.4426,1.426,1.4264,1.4268,1.4395,1.4412,1.4426,0,0,0,0,0,0,1.5442,1.5273,1.522,1.5168,1.5081,1.4934,1.492,1.4851,1.4771,1.4762,1.4631,1.4601,1.4552,1.4481,1.4473,1.4405,1.4347,1.4346,1.4452,1.4467,1.4479,1.4498,1.4363,0,0,0,0,0,1.5468,1.5409,1.5264,1.5232,1.5191,1.5064,1.502,1.4946,1.4849,1.4811,1.4713,1.4622,1.4549,1.4503,1.4428,1.439,1.4359,1.4384,1.4397,1.4408,1.4409,1.4389,1.44,1.4282,1.4282,1.4282,0,0,1.5519,1.542,1.539,1.5259,1.5182,1.5125,1.5033,1.4975,1.4932,1.4801,1.4736,1.4663,1.4552,1.4503,1.4475,1.4443,1.4435,1.4413,1.4423,1.4418,1.4394,1.4405,1.4415,1.4284,1.4284,1.4284,0,0,1.5585,1.5503,1.547,1.5396,1.5282,1.5198,1.5191,1.5055,1.5002,1.4935,1.4838,1.4784,1.466,1.4587,1.4534,1.4578,1.4507,1.4557,1.4623,1.4604,1.4614,1.4621,1.4641,1.4649,1.4558,1.4558,1.4559,0,1.5663,1.5573,1.5461,1.541,1.5357,1.5239,1.5205,1.5138,1.5005,1.4971,1.4937,1.4783,1.4699,1.4634,1.4646,1.4605,1.4594,1.4572,1.4622,1.4628,1.4634,1.4651,1.4658,1.4565,1.4565,1.4564,1.4563,0,1.5677,1.5617,1.5604,1.5482,1.5426,1.5384,1.5267,1.5224,1.5156,1.5077,1.5013,1.4909,1.4814,1.4792,1.4723,1.4718,1.4702,1.4646,1.4586,1.4654,1.4668,1.4673,1.4576,1.4573,1.4571,1.4569,0,0,1.5824,1.5644,1.5641,1.5586,1.5454,1.5405,1.5359,1.5268,1.5236,1.5149,1.5109,1.501,1.4959,1.4899,1.4821,1.4805,1.4852,1.4751,1.4747,1.4777,1.4845,1.489,1.4899,1.4804,1.4805,1.4805,1.4856,0,1.5872,1.5784,1.5684,1.5632,1.5577,1.5466,1.5426,1.5342,1.5268,1.521,1.5127,1.5061,1.4997,1.4961,1.494,1.4851,1.4864,1.4845,1.4768,1.4766,1.4801,1.4905,1.4951,1.5003,1.486,1.4861,1.4861,0,1.5914,1.5837,1.5781,1.5659,1.5631,1.5598,1.5509,1.5454,1.5358,1.5305,1.5241,1.5159,1.5107,1.5054,1.4982,1.4972,1.4934,1.4887,1.4886,1.4876,1.4819,1.4901,1.5017,1.5027,1.4868,1.4867,1.4867,0,1.6032,1.5913,1.5865,1.5821,1.5676,1.5656,1.5594,1.5496,1.5449,1.5371,1.534,1.5256,1.5211,1.5149,1.5047,1.5017,1.4989,1.4925,1.4945,1.4948,1.4945,1.4947,1.506,1.4917,1.4917,1.4917,1.4917,0,1.6097,1.6068,1.5917,1.5887,1.5852,1.5738,1.5706,1.5635,1.5549,1.5505,1.5403,1.5364,1.5232,1.5177,1.5098,1.5054,1.5033,1.499,1.497,1.5001,1.5007,1.4975,1.497,1.4919,1.4918,1.4918,1.4918,0,1.6222,1.6119,1.606,1.593,1.5896,1.5877,1.5765,1.5733,1.5654,1.5601,1.5581,1.5458,1.5389,1.5282,1.5181,1.5127,1.5098,1.5062,1.5132,1.512,1.5148,1.5148,1.5246,1.5255,1.5106,1.5107,1.5108,0,1.6271,1.6247,1.6115,1.6079,1.6022,1.5965,1.5918,1.5805,1.5761,1.5652,1.5635,1.5559,1.5492,1.5389,1.529,1.5214,1.5177,1.5217,1.5165,1.5199,1.5182,1.5186,1.5185,1.523,1.5232,1.5234,1.5235,0,1.6371,1.6323,1.6259,1.618,1.6128,1.6059,1.5985,1.5961,1.5833,1.5788,1.5719,1.5668,1.5567,1.5495,1.5406,1.5342,1.5269,1.5253,1.5254,1.5286,1.5329,1.531,1.5168,1.5251,1.5249,1.5248,1.5247,1.5246,1.6461,1.6436,1.6341,1.6275,1.6209,1.6144,1.611,1.6029,1.5969,1.588,1.5816,1.5752,1.566,1.5533,1.5475,1.5424,1.5391,1.5392,1.5392,1.5395,1.5409,1.5336,1.5407,1.5406,1.5405,1.5405,1.5404,0,1.6559,1.6493,1.6434,1.6336,1.6286,1.6222,1.6139,1.6101,1.6046,1.5967,1.5905,1.5828,1.5758,1.5656,1.5579,1.5558,1.5523,1.5542,1.5544,1.5532,1.544,1.5449,1.5573,1.5573,1.5572,1.5572,1.5572,1.5572,1.6603,1.656,1.6501,1.6425,1.6359,1.6296,1.6255,1.6196,1.6132,1.6051,1.5994,1.5929,1.5841,1.5758,1.5693,1.5665,1.5643,1.5673,1.5636,1.5552,1.5537,1.5522,1.553,1.5669,1.5669,1.5731,1.5732,1.5732]},{"header":{"parameterUnit":"m.s-1","parameterCategory":1,"la1":30.2991,"la2":30.254,"lo1":-89.0895,"lo2":-89.0444,"dy":0.0017,"dx":0.0017,"nx":28,"ny":28,"refTime":"2024-12-10T09:00:00:Z","depth":0,"parameterNumber":3,"parameterNumberName":"V-component_of_WINDS"},"data":[0,0,0,0,0,0,0,0,0,0,0,0,0,0,0,0,0,0,0,0,0,0,0,0,0,0,0,0,0,0,0,0,0,0,0,0,0,0,0,0,0,0,0,0,0,0,0,0,0,0,0,0,0,0,0,0,0,0,2.51,2.5101,0,2.5108,2.5108,2.5108,2.5054,2.5052,2.5051,2.5049,2.5052,2.5053,2.5054,0,0,0,0,0,0,0,0,0,0,0,0,0,2.503,2.5031,2.51,2.5101,2.5101,2.5108,2.5108,2.5108,2.5054,2.5052,2.505,2.5049,2.5051,2.5053,2.5055,0,0,0,0,0,0,0,0,0,0,0,0,0,2.5051,2.5032,2.51,2.5075,2.5073,2.5108,2.5108,2.5108,2.5054,2.5052,2.505,2.5048,2.505,2.5053,2.5055,2.5113,0,0,2.5061,2.5062,0,0,0,0,0,0,0,0,2.505,2.5054,2.5078,2.5077,2.5074,2.5078,2.5084,2.511,2.5055,2.5061,2.5049,2.5047,2.5062,2.5063,2.5069,2.5113,2.5114,2.5062,2.5063,2.5064,2.5065,0,0,0,0,0,0,0,2.5048,2.5053,2.5103,2.5079,2.5076,2.5059,2.506,2.5088,2.5074,2.506,2.5057,2.5058,2.506,2.5067,2.5069,2.5114,2.5062,2.5064,2.5065,2.5066,2.5197,2.5199,0,0,0,0,0,0,2.5051,2.5052,2.5103,2.5103,2.5056,2.5063,2.5063,2.5079,2.5073,2.5071,2.506,2.5056,2.5064,2.5066,2.5068,2.5131,2.5064,2.5066,2.5067,2.5195,2.5197,2.52,0,0,0,0,0,0,2.505,2.5057,2.5103,2.5077,2.5081,2.5066,2.5084,2.508,2.5087,2.5073,2.507,2.5071,2.5063,2.5065,2.5101,2.513,2.5067,2.5069,2.5192,2.5196,2.5199,2.526,0,0,0,0,0,0,2.5048,2.5057,2.5082,2.5078,2.5083,2.5139,2.5086,2.5082,2.5092,2.5086,2.5082,2.5079,2.5061,2.5098,2.5103,2.5132,2.5071,2.5189,2.5194,2.5198,2.5255,2.5265,2.5273,0,0,0,0,0,2.5046,2.5099,2.5083,2.509,2.5114,2.5141,2.5143,2.5123,2.5094,2.5117,2.5107,2.5079,2.5127,2.5102,2.5107,2.5138,2.5187,2.5192,2.5197,2.5251,2.5263,2.5273,0,0,0,0,0,0,2.5107,2.5099,2.5081,2.5135,2.5139,2.5131,2.516,2.5137,2.5148,2.5142,2.5114,2.5113,2.5152,2.5149,2.5121,2.5189,2.5151,2.5158,2.5191,2.5202,2.5211,2.5209,2.5072,0,0,0,0,0,2.5127,2.5152,2.5142,2.519,2.5193,2.5176,2.5187,2.517,2.5172,2.5173,2.5166,2.5167,2.5181,2.5192,2.5205,2.5254,2.5249,2.5277,2.5286,2.5294,2.5298,2.5317,2.5327,2.5216,2.5216,2.5216,0,0,2.5169,2.5167,2.5184,2.5202,2.5203,2.5225,2.5178,2.5205,2.5219,2.5177,2.5209,2.5203,2.5202,2.5243,2.5261,2.5241,2.5328,2.53,2.5306,2.5307,2.5323,2.5334,2.5343,2.5219,2.5219,2.5218,0,0,2.5254,2.5258,2.5295,2.5296,2.5297,2.5285,2.5293,2.5288,2.5282,2.5314,2.5281,2.5296,2.5323,2.5321,2.5324,2.5401,2.5374,2.5406,2.5452,2.5471,2.5479,2.5487,2.5509,2.5518,2.5411,2.5411,2.5411,0,2.5305,2.5339,2.5317,2.5344,2.535,2.5312,2.5346,2.5348,2.5353,2.5356,2.5335,2.5363,2.536,2.5396,2.5414,2.542,2.5424,2.5406,2.548,2.5488,2.5494,2.5515,2.5524,2.5415,2.5414,2.5414,2.5414,0,2.5397,2.5421,2.545,2.5455,2.5465,2.5496,2.5474,2.5486,2.5466,2.5454,2.5483,2.5477,2.5485,2.5493,2.5475,2.5524,2.5511,2.5486,2.5446,2.5509,2.5527,2.5535,2.542,2.5419,2.5418,2.5417,0,0,2.5525,2.5513,2.5524,2.5522,2.5518,2.5534,2.556,2.5568,2.5575,2.5579,2.5596,2.5617,2.559,2.5593,2.5574,2.5591,2.5644,2.5562,2.5561,2.5574,2.5691,2.5708,2.5718,2.5627,2.5628,2.5629,2.5689,0,2.5604,2.565,2.5627,2.5674,2.5691,2.5652,2.5673,2.5671,2.5659,2.5669,2.5654,2.5667,2.5635,2.5635,2.565,2.5635,2.5667,2.5631,2.5638,2.5639,2.5637,2.5729,2.5749,2.5806,2.5697,2.5699,2.5699,0,2.5704,2.5709,2.5758,2.5744,2.575,2.5771,2.5772,2.5784,2.5777,2.5766,2.5767,2.5741,2.576,2.5722,2.5745,2.572,2.5721,2.5714,2.5715,2.5713,2.5671,2.5725,2.5825,2.5832,2.5712,2.5711,2.571,0,2.5785,2.5805,2.5834,2.5835,2.5821,2.5835,2.5829,2.5821,2.5824,2.5824,2.5825,2.5828,2.5829,2.5829,2.5802,2.5779,2.5826,2.5788,2.5814,2.5814,2.5824,2.5824,2.5921,2.5831,2.5831,2.5831,2.583,0,2.5874,2.5904,2.587,2.5888,2.5918,2.5889,2.5918,2.5908,2.5899,2.5911,2.5877,2.5888,2.5855,2.5861,2.584,2.5858,2.586,2.5848,2.5842,2.5849,2.585,2.5848,2.5842,2.5833,2.5832,2.5832,2.5831,0,2.597,2.595,2.5978,2.5961,2.5956,2.5979,2.5962,2.5975,2.5959,2.5973,2.5975,2.5949,2.5954,2.5928,2.5928,2.5914,2.594,2.5929,2.5943,2.5938,2.5963,2.596,2.6061,2.607,2.5977,2.5978,2.5979,0,2.6027,2.6049,2.6032,2.6038,2.6033,2.6044,2.6046,2.6017,2.602,2.601,2.6023,2.6025,2.6025,2.6033,2.6012,2.601,2.5996,2.6031,2.5995,2.6,2.5991,2.5988,2.5988,2.6038,2.6039,2.604,2.6041,0,2.6129,2.6115,2.6122,2.6122,2.6126,2.6125,2.6121,2.6127,2.6094,2.6099,2.6103,2.6103,2.6101,2.6101,2.6094,2.6084,2.6055,2.6052,2.6057,2.6064,2.6069,2.6062,2.5959,2.605,2.6049,2.6048,2.6048,2.6048,2.6203,2.6218,2.6207,2.6213,2.6206,2.6202,2.6212,2.6195,2.6199,2.6195,2.6177,2.6183,2.6168,2.6156,2.6148,2.6149,2.6132,2.6141,2.6142,2.6144,2.6146,2.6071,2.6148,2.6148,2.6148,2.6147,2.6147,0,2.6299,2.6288,2.6294,2.6289,2.6291,2.6265,2.6258,2.6261,2.6267,2.6257,2.6256,2.6257,2.6256,2.6233,2.6227,2.6232,2.6218,2.6231,2.6229,2.6226,2.6165,2.6159,2.6242,2.6242,2.6242,2.6242,2.6242,2.6242,2.6348,2.637,2.6354,2.6369,2.6358,2.6364,2.6361,2.6355,2.6346,2.6349,2.6347,2.6333,2.6315,2.6307,2.6302,2.6295,2.6293,2.6309,2.6297,2.624,2.6231,2.6222,2.6216,2.631,2.631,2.6357,2.6358,2.6358]}]]